Location: Aulagny
(45.1643°N, 4.3096°E)
Time: 14:55:08
(UTC+00:00)

Cosmos 2278 Rocket - Pass Details

Date: 21 October 2019
Orbit: 840 x 846 km, 71.0° (Epoch: 22 November)

Event Time Altitude Azimuth Distance (km) Brightness Sun altitude
Rises 18:37:13 0° 225° (SW) 3,393 5.9 -19.9°
Reaches altitude 10° 18:39:47 10° 232° (SW) 2,462 5.2 -20.4°
Maximum altitude 18:45:09 43° 303° (WNW) 1,170 3.3 -21.3°
Drops below altitude 10° 18:50:34 10° 15° (NNE) 2,479 4.5 -22.3°
Sets 18:53:09 0° 22° (NNE) 3,418 5.2 -22.7°
